Location: *
(41.3833°S, 177.8333°W)
Time: 21:09:21
(UTC+00:00)

Cosmos 1378 - Pass Details

Date: 01 April 2020
Orbit: 491 x 503 km, 82.5° (Epoch: 31 May)

Event Time Altitude Azimuth Distance (km) Brightness Sun altitude
Rises 16:34:27 0° 188° (S) 2,616 6.8 -18.3°
Reaches altitude 10° 16:36:36 10° 187° (S) 1,723 5.9 -17.9°
Maximum altitude 16:40:22 87° 101° (E) 508 3.1 -17.2°
Drops below altitude 10° 16:44:06 10° 8° (N) 1,694 5.8 -16.5°
Sets 16:46:11 0° 7° (N) 2,567 6.7 -16.1°
